SAS48C ENBR-ENGM

Flight info

Callsign SAS48C
Flight time 0h 39m
Altitude 33000
Route GOKAB DCT ULVAN DCT ADOPI
Aircraft B736/M-SDE2E3FGHIRWXY/LB1

Departure

Time 2026-05-05 17:22
Airport Bergen Airport, Flesland (ENBR)

Arrival

Time 2026-05-05 18:01
Airport Oslo-Gardermoen International Airport (ENGM)
Time Latitude Longitude Altitude Speed Heading
2026-05-05 16:43 60.28741 5.22906 175 ft 0 kts 81°
2026-05-05 17:09 60.28741 5.22903 175 ft 1 kts 81°
2026-05-05 17:09 60.28740 5.22893 175 ft 1 kts 81°
2026-05-05 17:09 60.28740 5.22883 175 ft 1 kts 81°
2026-05-05 17:10 60.28739 5.22874 175 ft 1 kts 81°
2026-05-05 17:10 60.28738 5.22864 175 ft 1 kts 81°
2026-05-05 17:10 60.28737 5.22855 174 ft 1 kts 81°
2026-05-05 17:10 60.28736 5.22845 174 ft 1 kts 81°
2026-05-05 17:11 60.28736 5.22836 174 ft 0 kts 81°
2026-05-05 17:11 60.28736 5.22835 174 ft 0 kts 81°
2026-05-05 17:17 60.28743 5.22855 174 ft 6 kts 37°
2026-05-05 17:17 60.28753 5.22799 174 ft 6 kts 228°
2026-05-05 17:18 60.28726 5.22709 173 ft 9 kts 259°
2026-05-05 17:18 60.28716 5.22582 173 ft 9 kts 258°
2026-05-05 17:18 60.28696 5.22456 170 ft 10 kts 242°
2026-05-05 17:18 60.28666 5.22362 166 ft 1 kts 184°
2026-05-05 17:19 60.28635 5.22371 166 ft 9 kts 173°
2026-05-05 17:19 60.28462 5.22430 162 ft 29 kts 171°
2026-05-05 17:19 60.28275 5.22491 156 ft 21 kts 169°
2026-05-05 17:19 60.28132 5.22545 152 ft 21 kts 169°
2026-05-05 17:20 60.28064 5.22494 151 ft 5 kts 243°
2026-05-05 17:20 60.28056 5.22433 151 ft 4 kts 262°
2026-05-05 17:20 60.28052 5.22372 152 ft 5 kts 262°
2026-05-05 17:20 60.28068 5.22258 152 ft 11 kts 317°
2026-05-05 17:21 60.28143 5.22213 152 ft 12 kts 348°
2026-05-05 17:21 60.28322 5.22153 154 ft 56 kts 350°
2026-05-05 17:21 60.28951 5.21943 163 ft 124 kts 349°
2026-05-05 17:22 60.30901 5.21379 1324 ft 134 kts 347°
2026-05-05 17:22 60.31842 5.21095 1999 ft 143 kts 348°
2026-05-05 17:22 60.32901 5.20754 2501 ft 169 kts 348°
2026-05-05 17:22 60.34176 5.20351 2910 ft 200 kts 348°
2026-05-05 17:23 60.35687 5.19845 3105 ft 237 kts 348°
2026-05-05 17:23 60.37343 5.19274 3790 ft 251 kts 349°
2026-05-05 17:23 60.39109 5.18621 4722 ft 254 kts 348°
2026-05-05 17:23 60.40850 5.18003 5621 ft 256 kts 349°
2026-05-05 17:24 60.42592 5.17449 5964 ft 258 kts 348°
2026-05-05 17:24 60.44380 5.16912 6073 ft 265 kts 356°
2026-05-05 17:24 60.46155 5.17906 5992 ft 269 kts 31°
2026-05-05 17:24 60.47384 5.20738 5999 ft 271 kts 62°
2026-05-05 17:25 60.47907 5.24436 6246 ft 280 kts 83°
2026-05-05 17:25 60.47845 5.27083 6965 ft 280 kts 99°
2026-05-05 17:25 60.46643 5.31720 8204 ft 290 kts 137°
2026-05-05 17:25 60.44905 5.33855 9131 ft 296 kts 161°
2026-05-05 17:26 60.42946 5.35127 10317 ft 296 kts 163°
2026-05-05 17:26 60.40984 5.36743 11100 ft 309 kts 159°
2026-05-05 17:26 60.39006 5.38432 12223 ft 309 kts 160°
2026-05-05 17:26 60.36986 5.40185 13136 ft 321 kts 160°
2026-05-05 17:27 60.35040 5.42406 14182 ft 329 kts 139°
2026-05-05 17:27 60.33600 5.46188 14722 ft 349 kts 118°
2026-05-05 17:27 60.32620 5.50515 16055 ft 340 kts 109°
2026-05-05 17:27 60.31949 5.55137 16892 ft 352 kts 95°
2026-05-05 17:28 60.32192 5.60053 17657 ft 354 kts 67°
2026-05-05 17:28 60.33323 5.64384 18580 ft 349 kts 49°
2026-05-05 17:28 60.34742 5.68448 19348 ft 359 kts 49°
2026-05-05 17:28 60.36070 5.72806 20179 ft 370 kts 55°
2026-05-05 17:29 60.37246 5.77527 20992 ft 382 kts 58°
2026-05-05 17:29 60.38352 5.82503 21752 ft 394 kts 60°
2026-05-05 17:29 60.39467 5.87629 22502 ft 403 kts 57°
2026-05-05 17:29 60.40663 5.92875 23195 ft 416 kts 59°
2026-05-05 17:30 60.41836 5.98285 23900 ft 425 kts 59°
2026-05-05 17:30 60.42988 6.03756 24603 ft 434 kts 67°
2026-05-05 17:30 60.43518 6.09890 25110 ft 455 kts 85°
2026-05-05 17:30 60.43461 6.16421 25471 ft 471 kts 92°
2026-05-05 17:31 60.43284 6.23112 26005 ft 480 kts 92°
2026-05-05 17:31 60.43096 6.29919 26658 ft 486 kts 93°
2026-05-05 17:31 60.42904 6.36782 26942 ft 487 kts 92°
2026-05-05 17:31 60.42710 6.43610 26945 ft 486 kts 93°
2026-05-05 17:32 60.42513 6.50465 26957 ft 488 kts 93°
2026-05-05 17:32 60.42314 6.57334 26963 ft 488 kts 93°
2026-05-05 17:32 60.42130 6.64123 26940 ft 488 kts 92°
2026-05-05 17:32 60.41981 6.70969 26946 ft 487 kts 86°
2026-05-05 17:33 60.41977 6.77806 26971 ft 486 kts 90°
2026-05-05 17:33 60.41861 6.84681 26954 ft 488 kts 91°
2026-05-05 17:33 60.41739 6.91545 26940 ft 488 kts 91°
2026-05-05 17:33 60.41625 6.98420 26950 ft 488 kts 91°
2026-05-05 17:34 60.41514 7.05311 26635 ft 491 kts 91°
2026-05-05 17:34 60.41403 7.12164 26139 ft 483 kts 91°
2026-05-05 17:34 60.41292 7.18962 25723 ft 484 kts 91°
2026-05-05 17:34 60.41180 7.25777 25270 ft 485 kts 91°
2026-05-05 17:35 60.40996 7.32583 24822 ft 482 kts 92°
2026-05-05 17:35 60.40779 7.39256 24394 ft 478 kts 94°
2026-05-05 17:35 60.40525 7.45958 23938 ft 474 kts 94°
2026-05-05 17:35 60.40272 7.52564 23517 ft 470 kts 94°
2026-05-05 17:36 60.40017 7.59139 22997 ft 466 kts 94°
2026-05-05 17:36 60.39767 7.65649 22489 ft 460 kts 92°
2026-05-05 17:36 60.39545 7.72056 21991 ft 454 kts 94°
2026-05-05 17:36 60.39289 7.78367 21510 ft 446 kts 94°
2026-05-05 17:37 60.39022 7.84570 21018 ft 438 kts 95°
2026-05-05 17:37 60.38838 7.88617 20711 ft 433 kts 95°
2026-05-05 17:37 60.38468 7.96649 20083 ft 423 kts 94°
2026-05-05 17:37 60.38190 8.02544 19616 ft 416 kts 94°
2026-05-05 17:38 60.37913 8.08314 19164 ft 409 kts 94°
2026-05-05 17:38 60.37653 8.13911 18718 ft 401 kts 94°
2026-05-05 17:38 60.37365 8.19481 18278 ft 395 kts 97°
2026-05-05 17:38 60.36899 8.24926 18076 ft 392 kts 101°
2026-05-05 17:39 60.36346 8.30351 17773 ft 395 kts 101°
2026-05-05 17:39 60.35771 8.35766 17247 ft 391 kts 101°
2026-05-05 17:39 60.35205 8.41110 16750 ft 386 kts 101°
2026-05-05 17:39 60.34655 8.46395 16268 ft 383 kts 101°
2026-05-05 17:40 60.34120 8.51634 15785 ft 379 kts 100°
2026-05-05 17:40 60.33594 8.56834 15316 ft 376 kts 100°
2026-05-05 17:40 60.33076 8.61983 14834 ft 372 kts 99°
2026-05-05 17:40 60.32565 8.67074 14372 ft 369 kts 99°
2026-05-05 17:41 60.32063 8.72067 13934 ft 366 kts 99°
2026-05-05 17:41 60.31558 8.77068 13447 ft 361 kts 101°
2026-05-05 17:41 60.31062 8.81971 12942 ft 352 kts 101°
2026-05-05 17:41 60.30575 8.86768 12455 ft 347 kts 101°
2026-05-05 17:42 60.30090 8.91531 11980 ft 346 kts 101°
2026-05-05 17:42 60.29604 8.96289 11915 ft 346 kts 100°
2026-05-05 17:42 60.29116 9.01041 11918 ft 348 kts 101°
2026-05-05 17:42 60.28624 9.05822 11910 ft 346 kts 101°
2026-05-05 17:43 60.28140 9.10499 11918 ft 345 kts 101°
2026-05-05 17:43 60.27647 9.15240 11909 ft 346 kts 101°
2026-05-05 17:43 60.27153 9.19979 11908 ft 346 kts 101°
2026-05-05 17:43 60.26656 9.24736 11904 ft 346 kts 101°
2026-05-05 17:44 60.26156 9.29490 11906 ft 346 kts 101°
2026-05-05 17:44 60.25656 9.34237 11907 ft 346 kts 101°
2026-05-05 17:44 60.25155 9.38969 11914 ft 346 kts 101°
2026-05-05 17:44 60.24654 9.43695 11903 ft 345 kts 98°
2026-05-05 17:45 60.24162 9.48408 11747 ft 341 kts 102°
2026-05-05 17:45 60.23671 9.52992 11455 ft 329 kts 102°
2026-05-05 17:45 60.23198 9.57366 11178 ft 319 kts 102°
2026-05-05 17:45 60.22732 9.61672 10924 ft 314 kts 102°
2026-05-05 17:46 60.22268 9.66007 10661 ft 318 kts 102°
2026-05-05 17:46 60.21795 9.70386 10397 ft 319 kts 102°
2026-05-05 17:46 60.21320 9.74725 10150 ft 316 kts 102°
2026-05-05 17:46 60.20847 9.79031 9901 ft 314 kts 102°
2026-05-05 17:47 60.20378 9.83298 9631 ft 311 kts 102°
2026-05-05 17:47 60.19916 9.87483 9339 ft 300 kts 102°
2026-05-05 17:47 60.19472 9.91512 9062 ft 290 kts 102°
2026-05-05 17:47 60.19041 9.95407 8762 ft 282 kts 102°
2026-05-05 17:48 60.18617 9.99232 8507 ft 281 kts 102°
2026-05-05 17:48 60.18185 10.03119 8245 ft 286 kts 102°
2026-05-05 17:48 60.17752 10.07009 7971 ft 283 kts 102°
2026-05-05 17:48 60.17326 10.10821 7703 ft 277 kts 102°
2026-05-05 17:49 60.16903 10.14583 7440 ft 274 kts 102°
2026-05-05 17:49 60.16489 10.18274 7185 ft 275 kts 102°
2026-05-05 17:49 60.16066 10.22022 6930 ft 275 kts 102°
2026-05-05 17:49 60.15652 10.25699 6661 ft 263 kts 102°
2026-05-05 17:50 60.15255 10.29218 6393 ft 253 kts 102°
2026-05-05 17:50 60.14868 10.32605 6120 ft 245 kts 102°
2026-05-05 17:50 60.14500 10.35832 6009 ft 229 kts 102°
2026-05-05 17:50 60.14150 10.38906 6009 ft 222 kts 102°
2026-05-05 17:51 60.13807 10.41901 5999 ft 220 kts 102°
2026-05-05 17:51 60.13464 10.44888 5994 ft 218 kts 102°
2026-05-05 17:51 60.13124 10.47849 5999 ft 219 kts 102°
2026-05-05 17:51 60.12781 10.50847 6008 ft 219 kts 102°
2026-05-05 17:52 60.12441 10.53797 5922 ft 223 kts 102°
2026-05-05 17:52 60.12077 10.56973 5357 ft 237 kts 102°
2026-05-05 17:52 60.11710 10.60138 5168 ft 229 kts 102°
2026-05-05 17:52 60.11353 10.63190 5045 ft 222 kts 102°
2026-05-05 17:53 60.11005 10.66166 4998 ft 217 kts 102°
2026-05-05 17:53 60.10662 10.69098 4995 ft 214 kts 102°
2026-05-05 17:53 60.10450 10.72031 4966 ft 213 kts 94°
2026-05-05 17:53 60.10286 10.75020 4795 ft 213 kts 97°
2026-05-05 17:54 60.09975 10.77918 4765 ft 214 kts 102°
2026-05-05 17:54 60.09609 10.80780 4851 ft 217 kts 102°
2026-05-05 17:54 60.09352 10.82764 4850 ft 223 kts 102°
2026-05-05 17:54 60.09035 10.85830 4912 ft 223 kts 101°
2026-05-05 17:55 60.08662 10.88780 5052 ft 218 kts 104°
2026-05-05 17:55 60.08284 10.91768 5002 ft 221 kts 101°
2026-05-05 17:55 60.07917 10.94803 4848 ft 228 kts 101°
2026-05-05 17:55 60.07946 10.98884 4417 ft 221 kts 66°
2026-05-05 17:56 60.08430 11.00695 4181 ft 214 kts 49°
2026-05-05 17:56 60.09399 11.02541 4213 ft 179 kts 26°
2026-05-05 17:56 60.10572 11.03283 3725 ft 172 kts 352°
2026-05-05 17:56 60.11508 11.02275 3506 ft 150 kts 297°
2026-05-05 17:57 60.11608 11.00240 3175 ft 159 kts 250°
2026-05-05 17:57 60.10866 10.98724 3023 ft 156 kts 202°
2026-05-05 17:57 60.09861 10.98816 3116 ft 154 kts 147°
2026-05-05 17:57 60.09263 11.00875 2944 ft 185 kts 93°
2026-05-05 17:58 60.09570 11.03306 2961 ft 178 kts 51°
2026-05-05 17:58 60.10486 11.04805 2666 ft 159 kts 19°
2026-05-05 17:58 60.11531 11.04982 2351 ft 156 kts 344°
2026-05-05 17:58 60.12566 11.04694 2056 ft 145 kts 348°
2026-05-05 17:59 60.13557 11.04641 1702 ft 138 kts
2026-05-05 17:59 60.14459 11.05042 1520 ft 133 kts
2026-05-05 17:59 60.15382 11.05533 1195 ft 137 kts 13°
2026-05-05 17:59 60.16249 11.06121 1094 ft 128 kts 15°
2026-05-05 18:00 60.17169 11.06617 959 ft 140 kts 13°
2026-05-05 18:00 60.18095 11.07085 780 ft 136 kts 16°
2026-05-05 18:00 60.18949 11.07633 668 ft 123 kts 16°
2026-05-05 18:00 60.19708 11.08068 671 ft 103 kts 15°
2026-05-05 18:01 60.20210 11.08363 675 ft 52 kts 15°
2026-05-05 18:01 60.20515 11.08530 678 ft 38 kts 14°
2026-05-05 18:01 60.20647 11.08618 676 ft 10 kts 21°
2026-05-05 18:01 60.20684 11.08699 676 ft 9 kts 64°
2026-05-05 18:02 60.20680 11.08819 677 ft 9 kts 105°
2026-05-05 18:02 60.20666 11.08933 678 ft 8 kts 107°
2026-05-05 18:02 60.20649 11.09040 678 ft 8 kts 107°
2026-05-05 18:02 60.20623 11.09138 676 ft 8 kts 154°
2026-05-05 18:03 60.20569 11.09131 678 ft 8 kts 200°
2026-05-05 18:03 60.20496 11.09089 678 ft 17 kts 196°
2026-05-05 18:03 60.20378 11.09022 677 ft 17 kts 197°
2026-05-05 18:03 60.20264 11.08954 678 ft 17 kts 197°
2026-05-05 18:04 60.20153 11.08892 678 ft 16 kts 189°
2026-05-05 18:04 60.20046 11.08828 677 ft 16 kts 194°
2026-05-05 18:04 60.19937 11.08767 677 ft 20 kts 197°
2026-05-05 18:04 60.19862 11.08722 677 ft 5 kts 197°
2026-05-05 18:05 60.19834 11.08705 674 ft 1 kts 197°
2026-05-05 18:05 60.19689 11.08625 674 ft 23 kts 196°
2026-05-05 18:05 60.19578 11.08567 677 ft 11 kts 197°
2026-05-05 18:05 60.19528 11.08590 679 ft 8 kts 108°
2026-05-05 18:06 60.19513 11.08695 679 ft 8 kts 109°
2026-05-05 18:06 60.19502 11.08762 678 ft 8 kts 106°
2026-05-05 18:06 60.19475 11.08876 680 ft 8 kts 179°
2026-05-05 18:06 60.19438 11.08935 680 ft 8 kts 105°
2026-05-05 18:07 60.19423 11.09038 680 ft 8 kts 107°
2026-05-05 18:07 60.19409 11.09137 680 ft 7 kts 103°
2026-05-05 18:07 60.19392 11.09218 680 ft 4 kts 145°
2026-05-05 18:07 60.19375 11.09224 680 ft 2 kts 182°
2026-05-05 18:08 60.19358 11.09218 680 ft 3 kts 194°
2026-05-05 18:08 60.19347 11.09211 680 ft 1 kts 195°
2026-05-05 18:08 60.19340 11.09207 680 ft 0 kts 195°